Powrót do katalogu

SL-16 DEB

AktywnyLEO
NORAD 22387·DEBRIS·🇷🇺 Russia

Wystrzelony Dec 25, 1992 z Baikonur Cosmodrome

Loading…

Następne Przeloty (najbliższe 24 godziny)

TLE

ŚwieżeSource: Space-Track

Epoka: Sep 14, 2026, 06:18 UTC

1 22387U 92093CC  26257.26295461  .00000135  00000-0  10287-3 0  9992
2 22387  70.8871 107.0909 0105967  31.2768  89.1848 14.07380397719485

Śledź SL-16 DEB w czasie rzeczywistym z AllMySat

Download on the App Store